Location: Newark
(42.8481°N, 0.4872°E)
Time: 17:09:10
(UTC+00:00)

Courier 1B - All Passes

Search period start: 21 October 2020 00:00
Search period end: 31 October 2020 00:00
Orbit: 963 x 1209 km, 28.3° (Epoch: 20 October)

Date Brightness Start Highest point End Pass type
(mag) Time Alt. Az. Time Alt. Az. Time Alt. Az.
21 Oct - 13:33:42 10° SSW 13:37:43 17° SSE 13:41:47 10° SE daylight
21 Oct - 15:25:39 10° SW 15:30:41 23° S 15:35:55 10° SE daylight
21 Oct - 17:19:13 10° SW 17:23:46 19° SSW 17:28:30 10° SSE daylight
22 Oct - 12:41:03 10° S 12:44:15 14° SSE 12:47:29 10° SE daylight
22 Oct - 14:32:18 10° SW 14:37:09 22° S 14:42:10 10° SE daylight
22 Oct - 16:25:28 10° SW 16:30:14 21° S 16:35:10 10° SE daylight
22 Oct - 18:21:18 10° SW 18:23:14 11° SSW 18:25:10 10° S visible
23 Oct - 11:49:03 10° S 11:50:49 11° SSE 11:52:36 10° SE daylight
23 Oct - 13:39:03 10° SW 13:43:40 21° S 13:48:22 10° SE daylight
23 Oct - 15:31:51 10° SW 15:36:42 22° S 15:41:42 10° SE daylight
23 Oct - 17:26:30 10° SW 17:29:42 14° SSW 17:32:59 10° S visible
24 Oct - 12:45:56 10° SSW 12:50:11 18° SSE 12:54:30 10° SE daylight
24 Oct - 14:38:20 10° SW 14:43:11 22° S 14:48:09 10° SE daylight
24 Oct - 16:32:21 10° SW 16:36:12 16° SSW 16:40:09 10° SSE daylight
25 Oct - 11:52:58 10° SSW 11:56:44 16° SSE 12:00:30 10° SE daylight
25 Oct - 13:44:53 10° SW 13:49:41 22° S 13:54:34 10° SE daylight
25 Oct - 15:38:26 10° SW 15:42:41 18° SSW 15:47:03 10° SSE daylight
26 Oct - 11:00:17 10° S 11:03:17 13° SSE 11:06:15 10° SE daylight
26 Oct - 12:51:29 10° SW 12:56:11 21° S 13:00:55 10° SE daylight
26 Oct - 14:44:41 10° SW 14:49:11 20° S 14:53:48 10° SE daylight
26 Oct - 16:40:44 10° SW 16:42:06 11° SSW 16:43:29 10° S daylight
27 Oct - 10:08:20 10° S 10:09:50 11° SSE 10:11:20 10° SE daylight
27 Oct - 11:58:11 10° SW 12:02:42 20° S 12:07:13 10° SE daylight
27 Oct - 13:51:01 10° SW 13:55:42 21° S 14:00:26 10° SE daylight
27 Oct - 15:45:44 10° SW 15:48:38 13° SSW 15:51:35 10° S daylight
28 Oct - 11:04:58 10° SSW 11:09:14 18° SSE 11:13:26 10° SE daylight
28 Oct - 12:57:26 10° SW 13:02:13 22° S 13:07:00 10° SE daylight
28 Oct - 14:51:30 10° SW 14:55:10 16° SSW 14:58:52 10° SSE daylight
29 Oct - 10:11:56 10° SSW 10:15:45 16° SSE 10:19:31 10° SE daylight
29 Oct - 12:03:54 10° SW 12:08:43 22° S 12:13:30 10° SE daylight
29 Oct - 13:57:32 10° SW 14:01:42 18° SSW 14:05:53 10° SSE daylight
30 Oct - 09:19:09 10° S 09:22:16 14° SSE 09:25:21 10° SE daylight
30 Oct - 11:10:26 10° SW 11:15:14 21° S 11:19:57 10° SE daylight
30 Oct - 13:03:43 10° SW 13:08:14 20° S 13:12:43 10° SE daylight
30 Oct - 14:59:53 10° SSW 15:01:05 11° SSW 15:02:18 10° SSW daylight
